contact:dominique.lefevre@mio.osupytheas.fr, maurice.libes@osupytheas.fr, didier.mallarino@osupytheas.fr
Project:EMSO http://www.emso-fr.org/EMSO-France
Depth: 2436.0 m
Title:EMSO Ligure Ouest : Data MII capteur CSTAR
DateTime,Latitude,Longitude,Instrument_Serial,Reference_Counts,Signal_Counts,Corrected_Signal_raw_counts,Calculated_Beam_c_inverse_meters,Internal_thermistor_counts
DateTime,Latitude,Longitude,Instrument_Serial,Reference_Counts,Signal_Counts,Corrected_Signal_raw_counts,Calculated_Beam_c_inverse_meters,Internal_thermistor_counts
2019-05-19T00:00:17,42.805,6.029,CST-1368DR,9497,13296,15603,0.003,551
2019-05-19T00:03:19,42.805,6.029,CST-1368DR,9497,13294,15601,0.004,550
2019-05-19T00:06:20,42.805,6.029,CST-1368DR,9497,13296,15602,0.004,550
2019-05-19T00:09:22,42.805,6.029,CST-1368DR,9497,13294,15601,0.004,551
2019-05-19T00:12:23,42.805,6.029,CST-1368DR,9496,13295,15603,0.003,551
2019-05-19T00:15:24,42.805,6.029,CST-1368DR,9497,13294,15601,0.004,551
2019-05-19T00:18:26,42.805,6.029,CST-1368DR,9497,13288,15593,0.006,551
2019-05-19T00:21:27,42.805,6.029,CST-1368DR,9497,13293,15599,0.004,551
2019-05-19T00:24:29,42.805,6.029,CST-1368DR,9497,13293,15599,0.004,550
2019-05-19T00:27:30,42.805,6.029,CST-1368DR,9496,13295,15603,0.003,551
2019-05-19T00:30:31,42.805,6.029,CST-1368DR,9497,13295,15602,0.004,551
2019-05-19T00:33:33,42.805,6.029,CST-1368DR,9496,13295,15603,0.003,551
2019-05-19T00:36:34,42.805,6.029,CST-1368DR,9496,13295,15603,0.003,550
2019-05-19T00:39:36,42.805,6.029,CST-1368DR,9496,13294,15602,0.004,551
2019-05-19T00:42:37,42.805,6.029,CST-1368DR,9496,13293,15601,0.004,551
2019-05-19T00:45:39,42.805,6.029,CST-1368DR,9496,13293,15601,0.004,551
2019-05-19T00:48:40,42.805,6.029,CST-1368DR,9496,13292,15599,0.004,551
2019-05-19T00:51:41,42.805,6.029,CST-1368DR,9496,13293,15600,0.004,551
2019-05-19T00:54:43,42.805,6.029,CST-1368DR,9496,13294,15602,0.004,551
2019-05-19T00:57:44,42.805,6.029,CST-1368DR,9496,13289,15596,0.005,551
2019-05-19T01:00:46,42.805,6.029,CST-1368DR,9496,13292,15599,0.004,550
2019-05-19T01:03:47,42.805,6.029,CST-1368DR,9496,13294,15602,0.004,550
2019-05-19T01:06:48,42.805,6.029,CST-1368DR,9495,13258,15561,0.014,551
2019-05-19T01:09:50,42.805,6.029,CST-1368DR,9496,13292,15599,0.004,550
2019-05-19T01:12:51,42.805,6.029,CST-1368DR,9496,13293,15600,0.004,550
2019-05-19T01:15:53,42.805,6.029,CST-1368DR,9495,13291,15600,0.004,551
2019-05-19T01:18:54,42.805,6.029,CST-1368DR,9495,13292,15601,0.004,551
2019-05-19T01:21:55,42.805,6.029,CST-1368DR,9495,13292,15601,0.004,551
2019-05-19T01:24:57,42.805,6.029,CST-1368DR,9495,13293,15602,0.004,551
2019-05-19T01:27:58,42.805,6.029,CST-1368DR,9495,13293,15602,0.004,551
2019-05-19T01:31:00,42.805,6.029,CST-1368DR,9495,13293,15602,0.004,551
2019-05-19T01:34:01,42.805,6.029,CST-1368DR,9495,13292,15601,0.004,551
2019-05-19T01:37:03,42.805,6.029,CST-1368DR,9495,13293,15602,0.004,551
2019-05-19T01:40:04,42.805,6.029,CST-1368DR,9495,13290,15599,0.004,551
2019-05-19T01:43:05,42.805,6.029,CST-1368DR,9495,13293,15602,0.004,551
2019-05-19T01:46:07,42.805,6.029,CST-1368DR,9495,13291,15600,0.004,551
2019-05-19T01:49:08,42.805,6.029,CST-1368DR,9495,13291,15600,0.004,551
2019-05-19T01:52:10,42.805,6.029,CST-1368DR,9495,13293,15603,0.003,551
2019-05-19T01:55:11,42.805,6.029,CST-1368DR,9495,13291,15600,0.004,551
2019-05-19T01:58:12,42.805,6.029,CST-1368DR,9495,13292,15601,0.004,551
2019-05-19T02:01:14,42.805,6.029,CST-1368DR,9495,13292,15601,0.004,551
2019-05-19T02:04:15,42.805,6.029,CST-1368DR,9495,13292,15601,0.004,551
2019-05-19T02:07:17,42.805,6.029,CST-1368DR,9494,13291,15601,0.004,551
2019-05-19T02:10:18,42.805,6.029,CST-1368DR,9494,13291,15601,0.004,551
2019-05-19T02:13:19,42.805,6.029,CST-1368DR,9494,13291,15602,0.004,551
2019-05-19T02:16:21,42.805,6.029,CST-1368DR,9494,13290,15600,0.004,550
2019-05-19T02:19:22,42.805,6.029,CST-1368DR,9494,13288,15598,0.005,551
2019-05-19T02:22:24,42.805,6.029,CST-1368DR,9494,13291,15602,0.004,551
2019-05-19T02:25:25,42.805,6.029,CST-1368DR,9494,13291,15601,0.004,551
2019-05-19T02:28:26,42.805,6.029,CST-1368DR,9494,13287,15597,0.005,551
2019-05-19T02:31:28,42.805,6.029,CST-1368DR,9494,13290,15600,0.004,550
2019-05-19T02:34:29,42.805,6.029,CST-1368DR,9494,13291,15601,0.004,551
2019-05-19T02:37:31,42.805,6.029,CST-1368DR,9494,13290,15600,0.004,551
2019-05-19T02:40:32,42.805,6.029,CST-1368DR,9494,13291,15601,0.004,551
2019-05-19T02:43:34,42.805,6.029,CST-1368DR,9494,13291,15601,0.004,551
2019-05-19T02:46:35,42.805,6.029,CST-1368DR,9494,13291,15601,0.004,551
2019-05-19T02:49:36,42.805,6.029,CST-1368DR,9494,13289,15599,0.004,551
2019-05-19T02:52:38,42.805,6.029,CST-1368DR,9493,13289,15600,0.004,550
2019-05-19T02:55:39,42.805,6.029,CST-1368DR,9493,13291,15603,0.003,551
2019-05-19T02:58:41,42.805,6.029,CST-1368DR,9493,13290,15602,0.004,551
2019-05-19T03:01:42,42.805,6.029,CST-1368DR,9493,13291,15603,0.003,550
2019-05-19T03:04:43,42.805,6.029,CST-1368DR,9493,13290,15601,0.004,551
2019-05-19T03:07:45,42.805,6.029,CST-1368DR,9493,13287,15598,0.005,551
2019-05-19T03:10:46,42.805,6.029,CST-1368DR,9493,13287,15598,0.005,551
2019-05-19T03:13:48,42.805,6.029,CST-1368DR,9493,13289,15600,0.004,551
2019-05-19T03:16:49,42.805,6.029,CST-1368DR,9493,13290,15601,0.004,551
2019-05-19T03:19:50,42.805,6.029,CST-1368DR,9493,13289,15600,0.004,551
2019-05-19T03:22:52,42.805,6.029,CST-1368DR,9493,13289,15600,0.004,551
2019-05-19T03:25:53,42.805,6.029,CST-1368DR,9493,13289,15600,0.004,551
2019-05-19T03:28:55,42.805,6.029,CST-1368DR,9493,13289,15601,0.004,550
2019-05-19T03:31:56,42.805,6.029,CST-1368DR,9493,13289,15601,0.004,551
2019-05-19T03:34:58,42.805,6.029,CST-1368DR,9493,13289,15600,0.004,551
2019-05-19T03:37:59,42.805,6.029,CST-1368DR,9492,13289,15602,0.004,551
2019-05-19T03:41:00,42.805,6.029,CST-1368DR,9492,13288,15601,0.004,551
2019-05-19T03:44:02,42.805,6.029,CST-1368DR,9492,13289,15602,0.004,550
2019-05-19T03:47:03,42.805,6.029,CST-1368DR,9492,13288,15600,0.004,551
2019-05-19T03:50:05,42.805,6.029,CST-1368DR,9492,13289,15602,0.004,551
2019-05-19T03:53:06,42.805,6.029,CST-1368DR,9492,13288,15600,0.004,551
2019-05-19T03:56:07,42.805,6.029,CST-1368DR,9492,13288,15601,0.004,550
2019-05-19T03:59:09,42.805,6.029,CST-1368DR,9492,13289,15602,0.004,551
2019-05-19T04:02:10,42.805,6.029,CST-1368DR,9492,13287,15599,0.004,551
2019-05-19T04:05:12,42.805,6.029,CST-1368DR,9492,13287,15600,0.004,551
2019-05-19T04:08:13,42.805,6.029,CST-1368DR,9492,13288,15600,0.004,551
2019-05-19T04:11:14,42.805,6.029,CST-1368DR,9492,13288,15601,0.004,551
2019-05-19T04:14:16,42.805,6.029,CST-1368DR,9492,13287,15599,0.004,551
2019-05-19T04:17:17,42.805,6.029,CST-1368DR,9492,13288,15600,0.004,551
2019-05-19T04:20:19,42.805,6.029,CST-1368DR,9492,13289,15602,0.004,551
2019-05-19T04:23:20,42.805,6.029,CST-1368DR,9492,13286,15598,0.005,551
2019-05-19T04:26:21,42.805,6.029,CST-1368DR,9491,13288,15602,0.004,551
2019-05-19T04:29:23,42.805,6.029,CST-1368DR,9491,13287,15601,0.004,551
2019-05-19T04:32:24,42.805,6.029,CST-1368DR,9491,13286,15599,0.004,551
2019-05-19T04:35:26,42.805,6.029,CST-1368DR,9491,13286,15600,0.004,551
2019-05-19T04:38:27,42.805,6.029,CST-1368DR,9491,13288,15602,0.004,551
2019-05-19T04:41:29,42.805,6.029,CST-1368DR,9491,13287,15601,0.004,551
2019-05-19T04:44:30,42.805,6.029,CST-1368DR,9491,13287,15601,0.004,551
2019-05-19T04:47:31,42.805,6.029,CST-1368DR,9491,13286,15600,0.004,551
2019-05-19T04:50:33,42.805,6.029,CST-1368DR,9491,13283,15596,0.005,551
2019-05-19T04:53:34,42.805,6.029,CST-1368DR,9491,13287,15601,0.004,550
2019-05-19T04:56:36,42.805,6.029,CST-1368DR,9491,13286,15600,0.004,551
2019-05-19T04:59:37,42.805,6.029,CST-1368DR,9491,13283,15596,0.005,551
2019-05-19T05:02:38,42.805,6.029,CST-1368DR,9491,13285,15599,0.004,551
2019-05-19T05:05:40,42.805,6.029,CST-1368DR,9491,13285,15599,0.004,551
2019-05-19T05:08:41,42.805,6.029,CST-1368DR,9491,13285,15599,0.004,551
2019-05-19T05:11:43,42.805,6.029,CST-1368DR,9491,13285,15599,0.004,551
2019-05-19T05:14:44,42.805,6.029,CST-1368DR,9490,13286,15601,0.004,551
2019-05-19T05:17:45,42.805,6.029,CST-1368DR,9490,13284,15599,0.004,551
2019-05-19T05:20:47,42.805,6.029,CST-1368DR,9490,13285,15600,0.004,551
2019-05-19T05:23:48,42.805,6.029,CST-1368DR,9490,13286,15601,0.004,551
2019-05-19T05:26:50,42.805,6.029,CST-1368DR,9490,13285,15601,0.004,551
2019-05-19T05:29:51,42.805,6.029,CST-1368DR,9490,13279,15594,0.006,551
2019-05-19T05:32:52,42.805,6.029,CST-1368DR,9490,13285,15600,0.004,551
2019-05-19T05:35:54,42.805,6.029,CST-1368DR,9490,13285,15600,0.004,551
2019-05-19T05:38:55,42.805,6.029,CST-1368DR,9490,13283,15598,0.005,551
2019-05-19T05:41:57,42.805,6.029,CST-1368DR,9490,13284,15599,0.004,551
2019-05-19T05:44:58,42.805,6.029,CST-1368DR,9490,13285,15600,0.004,551
2019-05-19T05:48:00,42.805,6.029,CST-1368DR,9490,13281,15596,0.005,551
2019-05-19T05:51:01,42.805,6.029,CST-1368DR,9490,13284,15600,0.004,551
2019-05-19T05:54:02,42.805,6.029,CST-1368DR,9490,13285,15600,0.004,551
2019-05-19T05:57:04,42.805,6.029,CST-1368DR,9490,13282,15597,0.005,551
2019-05-19T06:00:05,42.805,6.029,CST-1368DR,9489,13284,15600,0.004,549
2019-05-19T06:03:07,42.805,6.029,CST-1368DR,9490,13283,15598,0.005,551
2019-05-19T06:06:08,42.805,6.029,CST-1368DR,9489,13285,15602,0.004,550
2019-05-19T06:09:09,42.805,6.029,CST-1368DR,9490,13285,15600,0.004,550
2019-05-19T06:12:11,42.805,6.029,CST-1368DR,9489,13284,15600,0.004,551
2019-05-19T06:15:12,42.805,6.029,CST-1368DR,9489,13285,15601,0.004,551
2019-05-19T06:18:14,42.805,6.029,CST-1368DR,9489,13284,15601,0.004,551
2019-05-19T06:21:15,42.805,6.029,CST-1368DR,9489,13278,15593,0.006,550
2019-05-19T06:24:16,42.805,6.029,CST-1368DR,9489,13283,15599,0.004,551
2019-05-19T06:27:18,42.805,6.029,CST-1368DR,9489,13282,15599,0.004,550
2019-05-19T06:30:19,42.805,6.029,CST-1368DR,9489,13284,15601,0.004,551
2019-05-19T06:33:21,42.805,6.029,CST-1368DR,9489,13282,15598,0.005,551
2019-05-19T06:36:22,42.805,6.029,CST-1368DR,9489,13283,15599,0.004,550
2019-05-19T06:39:24,42.805,6.029,CST-1368DR,9489,13283,15599,0.004,551
2019-05-19T06:42:25,42.805,6.029,CST-1368DR,9489,13283,15599,0.004,550
2019-05-19T06:45:26,42.805,6.029,CST-1368DR,9489,13283,15599,0.004,551
2019-05-19T06:48:28,42.805,6.029,CST-1368DR,9489,13282,15598,0.005,551
2019-05-19T06:51:29,42.805,6.029,CST-1368DR,9489,13283,15599,0.004,551
2019-05-19T06:54:31,42.805,6.029,CST-1368DR,9489,13284,15600,0.004,551
2019-05-19T06:57:32,42.805,6.029,CST-1368DR,9488,13282,15600,0.004,551
2019-05-19T07:00:33,42.805,6.029,CST-1368DR,9488,13279,15596,0.005,551
2019-05-19T07:03:35,42.805,6.029,CST-1368DR,9488,13279,15596,0.005,551
2019-05-19T07:06:36,42.805,6.029,CST-1368DR,9488,13281,15599,0.004,551
2019-05-19T07:09:38,42.805,6.029,CST-1368DR,9488,13282,15600,0.004,551
2019-05-19T07:12:39,42.805,6.029,CST-1368DR,9488,13283,15601,0.004,551
2019-05-19T07:15:40,42.805,6.029,CST-1368DR,9488,13282,15600,0.004,551
2019-05-19T07:18:42,42.805,6.029,CST-1368DR,9488,13282,15600,0.004,551
2019-05-19T07:21:43,42.805,6.029,CST-1368DR,9488,13282,15599,0.004,551
2019-05-19T07:24:45,42.805,6.029,CST-1368DR,9488,13281,15599,0.004,551
2019-05-19T07:27:46,42.805,6.029,CST-1368DR,9488,13280,15597,0.005,550
2019-05-19T07:30:47,42.805,6.029,CST-1368DR,9488,13281,15599,0.004,551
2019-05-19T07:33:49,42.805,6.029,CST-1368DR,9488,13283,15600,0.004,550
2019-05-19T07:36:50,42.805,6.029,CST-1368DR,9488,13276,15593,0.006,551
2019-05-19T07:39:52,42.805,6.029,CST-1368DR,9488,13282,15600,0.004,551
2019-05-19T07:42:53,42.805,6.029,CST-1368DR,9488,13281,15599,0.004,551
2019-05-19T07:45:55,42.805,6.029,CST-1368DR,9488,13282,15600,0.004,551
2019-05-19T07:48:56,42.805,6.029,CST-1368DR,9488,13281,15598,0.005,551
2019-05-19T07:51:57,42.805,6.029,CST-1368DR,9488,13282,15600,0.004,551
2019-05-19T07:54:59,42.805,6.029,CST-1368DR,9488,13282,15600,0.004,551
2019-05-19T07:58:00,42.805,6.029,CST-1368DR,9487,13277,15596,0.005,551
2019-05-19T08:01:02,42.805,6.029,CST-1368DR,9487,13280,15599,0.004,551
2019-05-19T08:04:03,42.805,6.029,CST-1368DR,9487,13282,15601,0.004,551
2019-05-19T08:07:04,42.805,6.029,CST-1368DR,9487,13271,15588,0.007,550
2019-05-19T08:10:06,42.805,6.029,CST-1368DR,9487,13280,15599,0.004,551
2019-05-19T08:13:07,42.805,6.029,CST-1368DR,9487,13280,15599,0.004,551
2019-05-19T08:16:09,42.805,6.029,CST-1368DR,9487,13279,15597,0.005,550
2019-05-19T08:19:10,42.805,6.029,CST-1368DR,9487,13279,15598,0.005,551
2019-05-19T08:22:11,42.805,6.029,CST-1368DR,9487,13278,15597,0.005,551
2019-05-19T08:25:13,42.805,6.029,CST-1368DR,9487,13280,15599,0.004,551
2019-05-19T08:28:14,42.805,6.029,CST-1368DR,9487,13280,15599,0.004,551
2019-05-19T08:31:16,42.805,6.029,CST-1368DR,9487,13279,15598,0.005,551
2019-05-19T08:34:17,42.805,6.029,CST-1368DR,9487,13280,15599,0.004,551
2019-05-19T08:37:18,42.805,6.029,CST-1368DR,9487,13279,15598,0.005,551
2019-05-19T08:40:20,42.805,6.029,CST-1368DR,9487,13276,15594,0.006,551
2019-05-19T08:43:21,42.805,6.029,CST-1368DR,9487,13279,15598,0.005,551
2019-05-19T08:46:23,42.805,6.029,CST-1368DR,9487,13280,15598,0.005,551
2019-05-19T08:49:24,42.805,6.029,CST-1368DR,9486,13279,15599,0.004,551
2019-05-19T08:52:26,42.805,6.029,CST-1368DR,9486,13280,15600,0.004,551
2019-05-19T08:55:27,42.805,6.029,CST-1368DR,9487,13281,15600,0.004,551
2019-05-19T08:58:28,42.805,6.029,CST-1368DR,9486,13280,15601,0.004,551
2019-05-19T09:01:30,42.805,6.029,CST-1368DR,9486,13279,15599,0.004,551
2019-05-19T09:04:31,42.805,6.029,CST-1368DR,9486,13280,15600,0.004,551
2019-05-19T09:07:33,42.805,6.029,CST-1368DR,9486,13280,15601,0.004,550
2019-05-19T09:10:34,42.805,6.029,CST-1368DR,9486,13279,15599,0.004,551
2019-05-19T09:13:35,42.805,6.029,CST-1368DR,9486,13271,15589,0.007,551
2019-05-19T09:16:37,42.805,6.029,CST-1368DR,9486,13281,15601,0.004,551
2019-05-19T09:19:38,42.805,6.029,CST-1368DR,9486,13279,15599,0.004,550
2019-05-19T09:22:40,42.805,6.029,CST-1368DR,9486,13279,15600,0.004,551
2019-05-19T09:25:41,42.805,6.029,CST-1368DR,9486,13279,15599,0.004,551
2019-05-19T09:28:42,42.805,6.029,CST-1368DR,9486,13278,15598,0.005,551
2019-05-19T09:31:44,42.805,6.029,CST-1368DR,9486,13278,15598,0.005,551
2019-05-19T09:34:45,42.805,6.029,CST-1368DR,9486,13279,15599,0.004,551
2019-05-19T09:37:47,42.805,6.029,CST-1368DR,9486,13279,15599,0.004,551
2019-05-19T09:40:48,42.805,6.029,CST-1368DR,9486,13280,15600,0.004,551
2019-05-19T09:43:50,42.805,6.029,CST-1368DR,9486,13279,15599,0.004,551
2019-05-19T09:46:51,42.805,6.029,CST-1368DR,9486,13277,15597,0.005,551
2019-05-19T09:49:52,42.805,6.029,CST-1368DR,9486,13280,15600,0.004,551
2019-05-19T09:52:54,42.805,6.029,CST-1368DR,9486,13278,15598,0.005,551
2019-05-19T09:55:55,42.805,6.029,CST-1368DR,9485,13278,15600,0.004,551
2019-05-19T09:58:57,42.805,6.029,CST-1368DR,9485,13276,15598,0.005,551
2019-05-19T10:01:58,42.805,6.029,CST-1368DR,9485,13278,15600,0.004,551
2019-05-19T10:04:59,42.805,6.029,CST-1368DR,9485,13277,15599,0.004,550
2019-05-19T10:08:01,42.805,6.029,CST-1368DR,9485,13278,15599,0.004,551
2019-05-19T10:11:02,42.805,6.029,CST-1368DR,9485,13279,15601,0.004,551
2019-05-19T10:14:04,42.805,6.029,CST-1368DR,9485,13277,15598,0.005,551
2019-05-19T10:17:05,42.805,6.029,CST-1368DR,9485,13228,15541,0.019,551
2019-05-19T10:20:06,42.805,6.029,CST-1368DR,9485,13264,15583,0.008,551
2019-05-19T10:23:08,42.805,6.029,CST-1368DR,9485,13279,15601,0.004,551
2019-05-19T10:26:09,42.805,6.029,CST-1368DR,9485,13277,15599,0.004,551
2019-05-19T10:29:11,42.805,6.029,CST-1368DR,9485,13276,15597,0.005,551
2019-05-19T10:32:12,42.805,6.029,CST-1368DR,9485,13277,15599,0.004,551
2019-05-19T10:35:13,42.805,6.029,CST-1368DR,9485,13278,15599,0.004,551
2019-05-19T10:38:15,42.805,6.029,CST-1368DR,9485,13277,15599,0.004,551
2019-05-19T10:41:16,42.805,6.029,CST-1368DR,9485,13278,15600,0.004,551
2019-05-19T10:44:18,42.805,6.029,CST-1368DR,9485,13275,15596,0.005,551
2019-05-19T10:47:19,42.805,6.029,CST-1368DR,9485,13275,15596,0.005,550
2019-05-19T10:50:21,42.805,6.029,CST-1368DR,9484,13278,15601,0.004,551
2019-05-19T10:53:22,42.805,6.029,CST-1368DR,9484,13273,15595,0.005,550
2019-05-19T10:56:23,42.805,6.029,CST-1368DR,9484,13277,15600,0.004,551
2019-05-19T10:59:25,42.805,6.029,CST-1368DR,9484,13273,15595,0.005,551
2019-05-19T11:02:26,42.805,6.029,CST-1368DR,9484,13277,15600,0.004,551
2019-05-19T11:05:28,42.805,6.029,CST-1368DR,9484,13271,15593,0.006,551
2019-05-19T11:08:29,42.805,6.029,CST-1368DR,9484,13276,15598,0.005,551
2019-05-19T11:11:30,42.805,6.029,CST-1368DR,9484,13273,15595,0.005,551
2019-05-19T11:14:32,42.805,6.029,CST-1368DR,9484,13277,15600,0.004,551
2019-05-19T11:17:33,42.805,6.029,CST-1368DR,9484,13274,15596,0.005,551
2019-05-19T11:20:35,42.805,6.029,CST-1368DR,9484,13275,15597,0.005,551
2019-05-19T11:23:36,42.805,6.029,CST-1368DR,9484,13278,15601,0.004,551
2019-05-19T11:26:37,42.805,6.029,CST-1368DR,9484,13275,15597,0.005,551
2019-05-19T11:29:39,42.805,6.029,CST-1368DR,9484,13276,15599,0.004,551
2019-05-19T11:32:40,42.805,6.029,CST-1368DR,9484,13273,15595,0.005,551
2019-05-19T11:35:42,42.805,6.029,CST-1368DR,9484,13271,15593,0.006,551
2019-05-19T11:38:43,42.805,6.029,CST-1368DR,9484,13276,15599,0.004,551
2019-05-19T11:41:44,42.805,6.029,CST-1368DR,9483,13274,15598,0.005,551
2019-05-19T11:44:46,42.805,6.029,CST-1368DR,9484,13273,15595,0.005,551
2019-05-19T11:47:47,42.805,6.029,CST-1368DR,9483,13273,15596,0.005,551
2019-05-19T11:50:49,42.805,6.029,CST-1368DR,9483,13276,15600,0.004,551
2019-05-19T11:53:50,42.805,6.029,CST-1368DR,9483,13274,15598,0.005,551
2019-05-19T11:56:52,42.805,6.029,CST-1368DR,9483,13275,15599,0.004,551
2019-05-19T11:59:53,42.805,6.029,CST-1368DR,9483,13274,15598,0.005,551
2019-05-19T12:02:54,42.805,6.029,CST-1368DR,9483,13272,15595,0.005,551
2019-05-19T12:05:56,42.805,6.029,CST-1368DR,9483,13274,15598,0.005,551
2019-05-19T12:08:57,42.805,6.029,CST-1368DR,9483,13275,15599,0.004,551
2019-05-19T12:11:59,42.805,6.029,CST-1368DR,9483,13274,15597,0.005,551
2019-05-19T12:15:00,42.805,6.029,CST-1368DR,9483,13274,15598,0.005,551
2019-05-19T12:18:01,42.805,6.029,CST-1368DR,9483,13275,15599,0.004,551
2019-05-19T12:21:03,42.805,6.029,CST-1368DR,9483,13275,15599,0.004,551
2019-05-19T12:24:04,42.805,6.029,CST-1368DR,9483,13276,15600,0.004,551
2019-05-19T12:27:06,42.805,6.029,CST-1368DR,9483,13274,15598,0.005,550
2019-05-19T12:30:07,42.805,6.029,CST-1368DR,9483,13273,15597,0.005,551
2019-05-19T12:33:08,42.805,6.029,CST-1368DR,9483,13275,15599,0.004,551
2019-05-19T12:36:10,42.805,6.029,CST-1368DR,9482,13274,15599,0.004,551
2019-05-19T12:39:11,42.805,6.029,CST-1368DR,9483,13274,15598,0.005,550
2019-05-19T12:42:13,42.805,6.029,CST-1368DR,9483,13274,15598,0.005,551
2019-05-19T12:45:14,42.805,6.029,CST-1368DR,9482,13274,15599,0.004,550
2019-05-19T12:48:16,42.805,6.029,CST-1368DR,9482,13275,15601,0.004,551
2019-05-19T12:51:17,42.805,6.029,CST-1368DR,9482,13271,15596,0.005,551
2019-05-19T12:54:18,42.805,6.029,CST-1368DR,9482,13273,15598,0.005,551
2019-05-19T12:57:20,42.805,6.029,CST-1368DR,9482,13274,15599,0.004,551
2019-05-19T13:00:21,42.805,6.029,CST-1368DR,9482,13275,15600,0.004,551
2019-05-19T13:03:23,42.805,6.029,CST-1368DR,9482,13273,15598,0.005,551
2019-05-19T13:06:24,42.805,6.029,CST-1368DR,9482,13272,15597,0.005,551
2019-05-19T13:09:25,42.805,6.029,CST-1368DR,9482,13273,15598,0.005,551
2019-05-19T13:12:27,42.805,6.029,CST-1368DR,9482,13273,15598,0.005,551
2019-05-19T13:15:28,42.805,6.029,CST-1368DR,9482,13272,15597,0.005,551
2019-05-19T13:18:30,42.805,6.029,CST-1368DR,9482,13271,15595,0.005,551
2019-05-19T13:21:31,42.805,6.029,CST-1368DR,9482,13271,15596,0.005,551
2019-05-19T13:24:32,42.805,6.029,CST-1368DR,9482,13271,15596,0.005,551
2019-05-19T13:27:34,42.805,6.029,CST-1368DR,9482,13271,15596,0.005,550
2019-05-19T13:30:35,42.805,6.029,CST-1368DR,9482,13269,15593,0.006,551
2019-05-19T13:33:37,42.805,6.029,CST-1368DR,9482,13273,15598,0.005,551
2019-05-19T13:36:38,42.805,6.029,CST-1368DR,9482,13271,15596,0.005,551
2019-05-19T13:39:39,42.805,6.029,CST-1368DR,9481,13272,15598,0.005,551
2019-05-19T13:42:41,42.805,6.029,CST-1368DR,9481,13272,15599,0.004,551
2019-05-19T13:45:42,42.805,6.029,CST-1368DR,9481,13272,15599,0.004,551
2019-05-19T13:48:44,42.805,6.029,CST-1368DR,9481,13273,15599,0.004,551
2019-05-19T13:51:45,42.805,6.029,CST-1368DR,9481,13262,15587,0.007,551
2019-05-19T13:54:47,42.805,6.029,CST-1368DR,9481,13262,15586,0.008,551
2019-05-19T13:57:48,42.805,6.029,CST-1368DR,9481,13269,15595,0.005,550
2019-05-19T14:00:49,42.805,6.029,CST-1368DR,9481,13272,15598,0.005,551
2019-05-19T14:03:51,42.805,6.029,CST-1368DR,9481,13271,15597,0.005,551
2019-05-19T14:06:52,42.805,6.029,CST-1368DR,9481,13270,15596,0.005,551
2019-05-19T14:09:54,42.805,6.029,CST-1368DR,9481,13270,15597,0.005,551
2019-05-19T14:12:55,42.805,6.029,CST-1368DR,9481,13271,15598,0.005,551
2019-05-19T14:15:56,42.805,6.029,CST-1368DR,9481,13270,15596,0.005,551
2019-05-19T14:18:58,42.805,6.029,CST-1368DR,9481,13272,15598,0.005,551
2019-05-19T14:21:59,42.805,6.029,CST-1368DR,9481,13270,15597,0.005,551
2019-05-19T14:25:01,42.805,6.029,CST-1368DR,9481,13269,15595,0.005,551
2019-05-19T14:28:02,42.805,6.029,CST-1368DR,9481,13272,15598,0.005,551
2019-05-19T14:31:03,42.805,6.029,CST-1368DR,9481,13271,15597,0.005,551
2019-05-19T14:34:05,42.805,6.029,CST-1368DR,9480,13271,15598,0.005,551
2019-05-19T14:37:06,42.805,6.029,CST-1368DR,9480,13272,15600,0.004,551
2019-05-19T14:40:08,42.805,6.029,CST-1368DR,9480,13272,15600,0.004,551
2019-05-19T14:43:09,42.805,6.029,CST-1368DR,9480,13272,15600,0.004,550
2019-05-19T14:46:11,42.805,6.029,CST-1368DR,9480,13272,15600,0.004,551
2019-05-19T14:49:12,42.805,6.029,CST-1368DR,9480,13271,15598,0.005,551
2019-05-19T14:52:13,42.805,6.029,CST-1368DR,9480,13269,15597,0.005,551
2019-05-19T14:55:15,42.805,6.029,CST-1368DR,9480,13271,15599,0.004,551
2019-05-19T14:58:16,42.805,6.029,CST-1368DR,9480,13271,15599,0.004,551
2019-05-19T15:01:18,42.805,6.029,CST-1368DR,9480,13270,15598,0.005,551
2019-05-19T15:04:19,42.805,6.029,CST-1368DR,9480,13269,15597,0.005,551
2019-05-19T15:07:20,42.805,6.029,CST-1368DR,9480,13271,15598,0.005,551
2019-05-19T15:10:22,42.805,6.029,CST-1368DR,9480,13270,15597,0.005,551
2019-05-19T15:13:23,42.805,6.029,CST-1368DR,9480,13270,15597,0.005,550
2019-05-19T15:16:25,42.805,6.029,CST-1368DR,9480,13266,15593,0.006,550
2019-05-19T15:19:26,42.805,6.029,CST-1368DR,9480,13268,15595,0.005,551
2019-05-19T15:22:27,42.805,6.029,CST-1368DR,9480,13270,15598,0.005,551
2019-05-19T15:25:29,42.805,6.029,CST-1368DR,9479,13270,15599,0.004,551
2019-05-19T15:28:30,42.805,6.029,CST-1368DR,9479,13270,15600,0.004,550
2019-05-19T15:31:32,42.805,6.029,CST-1368DR,9479,13269,15598,0.005,551
2019-05-19T15:34:33,42.805,6.029,CST-1368DR,9479,13268,15597,0.005,551
2019-05-19T15:37:34,42.805,6.029,CST-1368DR,9479,13270,15600,0.004,551
2019-05-19T15:40:36,42.805,6.029,CST-1368DR,9479,13269,15598,0.005,551
2019-05-19T15:43:37,42.805,6.029,CST-1368DR,9479,13269,15598,0.005,551
2019-05-19T15:46:39,42.805,6.029,CST-1368DR,9479,13268,15597,0.005,551
2019-05-19T15:49:40,42.805,6.029,CST-1368DR,9479,13269,15598,0.005,551
2019-05-19T15:52:42,42.805,6.029,CST-1368DR,9479,13268,15597,0.005,551
2019-05-19T15:55:43,42.805,6.029,CST-1368DR,9479,13269,15598,0.005,551
2019-05-19T15:58:44,42.805,6.029,CST-1368DR,9479,13268,15597,0.005,551
2019-05-19T16:01:46,42.805,6.029,CST-1368DR,9479,13269,15598,0.005,551
2019-05-19T16:04:47,42.805,6.029,CST-1368DR,9479,13268,15597,0.005,551
2019-05-19T16:07:49,42.805,6.029,CST-1368DR,9479,13269,15598,0.005,551
2019-05-19T16:10:50,42.805,6.029,CST-1368DR,9479,13268,15597,0.005,551
2019-05-19T16:13:51,42.805,6.029,CST-1368DR,9479,13269,15598,0.005,551
2019-05-19T16:16:53,42.805,6.029,CST-1368DR,9478,13267,15597,0.005,551
2019-05-19T16:19:54,42.805,6.029,CST-1368DR,9478,13269,15599,0.004,551
2019-05-19T16:22:56,42.805,6.029,CST-1368DR,9478,13265,15595,0.005,551
2019-05-19T16:25:57,42.805,6.029,CST-1368DR,9478,13266,15596,0.005,550
2019-05-19T16:28:58,42.805,6.029,CST-1368DR,9478,13268,15599,0.004,551
2019-05-19T16:32:00,42.805,6.029,CST-1368DR,9478,13265,15595,0.005,551
2019-05-19T16:35:01,42.805,6.029,CST-1368DR,9478,13267,15597,0.005,551